Find UHF F/O F7

NORAD ID: 23967 Int'l Des: 1996-042 Owner: HCI Country: US operational
HEOCIRCULARGSO

Current View

Loading 3D Globe...

About UHF F/O F7

Description loading...

Upcoming Passes

Passes for default location (London). Set your location on the main map for personalized predictions.

Altitude History

Loading altitude history...

Two-Line Element Set

1 23967U 96042A 26144.00732582 -.00000288 00000-0 00000+0 0 9990
2 23967 11.0941 17.2161 0005530 102.2697 84.7667 1.00222358109240
Epoch: May 24, 2026 • Age: 59 hours

Current Status

Altitude 35805.3 km
Velocity 3.07 km/s
Sub-Earth Point -0.11°S, 40.49°W
Launch Date Jul 25, 1996
Age 29.8 years
Type other

Technical Details

Classification Payload
Mass 3019.00 kg
Dry Mass 1350.00 kg
Total Mass 3019.00 kg
Length 4.00 m
Diameter 3.00 m
Span 18.30 m
Shape Box + 2 Pan
Manufacturer HSES
Bus Type HS-601
Phase Status In Orbit
Owner/State HCI/US

Most Searched